Location: Brede
(50.9167°N, 0.6000°E)
Time: 19:31:35
(UTC+00:00)

Vanguard 1 Rocket - Pass Details

Date: 03 December 2020
Orbit: 655 x 4221 km, 34.3° (Epoch: 17 January)

Event Time Altitude Azimuth Distance (km) Brightness Sun altitude
Exits shadow 05:37:04 17° 260° (W) 6,206 11.0 -18.6°
Maximum altitude 05:49:54 31° 216° (SW) 4,200 10.5 -16.7°
Drops below altitude 10° 06:00:52 10° 160° (SSE) 4,445 11.4 -15.0°
Sets 06:04:10 0° 150° (SSE) 5,014 12.0 -14.5°
